DW0861 Weather Reports


Display with metric or nautical units.
time (UTC)temp
F
wind
direction
speed
MPH
gust
MPH
rain 1hr
in
rain 24hr
in
rain mn
in
humidity
%
barometer
mb
20200410100118 73 256 17.0 27.0 0.00 0.00 0.00 99 1003.6
20200410095437 73 254 15.0 24.0 0.00 0.00 0.00 99 1003.3
20200410094118 73 263 17.0 27.0 0.00 0.00 0.00 99 1003.3
20200410093438 73 258 16.0 26.0 0.00 0.00 0.00 99 1003.1
20200410092758 73 257 16.0 26.0 0.00 0.00 0.00 99 1003.0
20200410091438 73 259 16.0 25.0 0.00 0.00 0.00 98 1002.9
20200410090118 73 255 16.0 26.0 0.00 0.00 0.00 99 1002.7
20200410085438 73 258 17.0 29.0 0.00 0.00 0.00 98 1002.8
20200410084758 73 253 20.0 29.0 0.00 0.00 0.00 99 1002.9
20200410084118 73 258 16.0 26.0 0.00 0.00 0.00 98 1002.7
20200410083438 73 258 15.0 27.0 0.00 0.00 0.00 99 1002.5
20200410082118 74 258 19.0 27.0 0.00 0.00 0.00 99 1002.6
20200410081438 74 260 19.0 29.0 0.00 0.00 0.00 99 1002.6
20200410075438 74 257 18.0 27.0 0.00 0.00 0.00 99 1002.5
20200410074118 73 259 18.0 29.0 0.00 0.00 0.00 99 1002.6
20200410073438 74 262 19.0 30.0 0.00 0.00 0.00 99 1002.7
20200410070758 74 253 19.0 27.0 0.00 0.00 0.00 100 1002.5
20200410070118 73 252 16.0 29.0 0.00 0.00 0.00 100 1002.5
20200410065438 74 250 19.0 31.0 0.00 0.00 0.00 100 1002.4
20200410064758 74 249 21.0 32.0 0.00 0.00 0.00 100 1002.6
20200410064118 73 252 19.0 32.0 0.00 0.00 0.00 100 1002.6
20200410062758 73 252 17.0 32.0 0.00 0.00 0.00 100 1002.7
20200410062118 73 250 19.0 28.0 0.00 0.00 0.00 100 1002.7
20200410061438 73 250 19.0 32.0 0.00 0.00 0.00 99 1002.7
20200410054758 73 252 18.0 29.0 0.00 0.00 0.00 98 1002.8
20200410054118 73 250 19.0 32.0 0.00 0.00 0.00 98 1003.0
20200410052118 73 245 18.0 31.0 0.00 0.00 0.00 98 1003.0
20200410051438 73 255 19.0 34.0 0.00 0.00 0.00 98 1003.1
20200410050758 73 253 21.0 34.0 0.00 0.00 0.00 97 1002.9
20200410045438 73 250 18.0 32.0 0.00 0.00 0.00 98 1003.1
20200410044118 73 255 20.0 33.0 0.00 0.00 0.00 98 1003.4
20200410043438 73 248 20.0 31.0 0.00 0.00 0.00 98 1003.4
20200410042118 73 250 18.0 29.0 0.00 0.00 0.00 98 1003.3
20200410041438 73 247 19.0 33.0 0.00 0.00 0.00 98 1003.5
20200410040758 73 238 20.0 33.0 0.00 0.00 0.00 98 1003.4
20200410040118 73 243 18.0 33.0 0.00 0.00 0.00 99 1003.5
20200410035438 73 238 16.0 30.0 0.00 0.00 0.00 100 1003.5
20200410034758 73 232 16.0 27.0 0.00 0.00 0.00 100 1003.6
20200410034118 73 225 14.0 27.0 0.00 0.00 0.00 100 1003.6
20200410032118 73 231 17.0 25.0 0.00 0.00 0.00 100 1003.4
20200410030758 73 231 14.0 23.0 0.00 0.00 0.00 100 1003.5
20200410030118 73 222 17.0 23.0 0.00 0.00 0.00 100 1003.3
20200410025438 72 224 15.0 23.0 0.00 0.00 0.05 100 1003.4
20200410024758 72 210 13.0 21.0 0.00 0.00 0.05 100 1003.4
20200410024118 72 207 12.0 19.0 0.00 0.00 0.05 100 1003.7
20200410023438 72 212 12.0 20.0 0.00 0.00 0.05 100 1003.9
20200410022758 71 207 12.0 22.0 0.00 0.00 0.05 100 1004.0
20200410022118 71 206 14.0 22.0 0.00 0.00 0.05 100 1004.1
20200410021438 71 198 15.0 27.0 0.00 0.00 0.05 99 1004.2
20200410015438 70 190 14.0 26.0 0.00 0.00 0.05 99 1004.0
20200410014118 69 186 19.0 33.0 0.00 0.00 0.05 97 1004.1
20200410012758 70 185 19.0 29.0 0.00 0.00 0.05 98 1004.1
20200410012118 70 188 15.0 27.0 0.00 0.00 0.05 99 1004.2
20200410011438 70 187 17.0 28.0 0.00 0.00 0.05 99 1004.3
20200410005438 69 194 23.0 34.0 0.00 0.00 0.04 100 1004.3
20200410002758 69 198 18.0 31.0 0.00 0.00 0.03 99 1004.5
20200410002118 68 200 16.0 36.0 0.00 0.00 0.03 99 1004.5
20200410001438 69 189 23.0 36.0 0.00 0.00 0.03 99 1004.2
20200409235438 69 186 20.0 35.0 0.00 0.00 0.03 100 1003.8
20200409234758 69 199 19.0 40.0 0.00 0.00 0.03 100 1004.0
20200409233438 69 195 17.0 32.0 0.00 0.00 0.03 100 1004.5
20200409230758 67 204 20.0 38.0 0.00 0.00 0.01 95 1004.1
20200409230118 67 210 23.0 39.0 0.00 0.00 0.01 93 1004.1
20200409223438 69 212 25.0 39.0 0.00 0.00 0.01 93 1004.2
20200409222118 69 210 16.0 33.0 0.00 0.00 0.01 93 1004.2
20200409221438 69 211 20.0 32.0 0.00 0.00 0.01 89 1004.1
20200409220758 69 208 20.0 37.0 0.00 0.00 0.00 87 1004.1
20200409214118 69 217 21.0 38.0 0.00 0.00 0.00 85 1004.4
20200409212758 69 217 23.0 33.0 0.00 0.00 0.00 84 1004.6
20200409210758 69 226 20.0 34.0 0.00 0.00 0.00 85 1005.0
20200409205438 70 221 23.0 41.0 0.00 0.00 0.00 81 1004.9
20200409204758 70 218 18.0 32.0 0.00 0.00 0.00 83 1004.6
20200409204118 71 218 19.0 30.0 0.00 0.00 0.00 85 1004.7
20200409203438 71 224 18.0 33.0 0.00 0.00 0.00 85 1005.1
20200409202758 71 223 18.0 33.0 0.00 0.00 0.00 88 1005.2
20200409201438 71 218 15.0 31.0 0.00 0.00 0.00 93 1005.4
20200409195438 71 211 14.0 28.0 0.00 0.00 0.00 93 1005.5
20200409194758 72 210 17.0 28.0 0.00 0.00 0.00 92 1005.4
20200409193438 71 207 15.0 22.0 0.00 0.00 0.00 93 1005.9
20200409192758 71 208 14.0 21.0 0.00 0.00 0.00 93 1006.2
20200409192118 72 207 14.0 26.0 0.00 0.00 0.00 92 1006.1
20200409191439 72 223 13.0 25.0 0.00 0.00 0.00 92 1006.3
20200409190758 72 214 14.0 24.0 0.00 0.00 0.00 93 1006.5
20200409185439 72 216 14.0 25.0 0.00 0.00 0.00 92 1006.6
20200409184759 72 207 15.0 27.0 0.00 0.00 0.00 92 1006.7
20200409182759 72 203 16.0 25.0 0.00 0.00 0.00 90 1006.5
20200409174758 72 221 14.0 25.0 0.00 0.00 0.00 91 1007.5
20200409173439 72 216 14.0 27.0 0.00 0.00 0.00 91 1007.6
20200409172119 72 217 17.0 29.0 0.00 0.00 0.00 93 1007.7
20200409170759 72 216 12.0 25.0 0.00 0.00 0.00 92 1008.0
20200409165439 73 213 12.0 26.0 0.00 0.00 0.00 91 1008.3
20200409164759 72 233 14.0 26.0 0.00 0.00 0.00 92 1008.4
20200409163438 72 237 16.0 25.0 0.00 0.00 0.00 93 1008.6
20200409162759 72 228 14.0 26.0 0.00 0.00 0.00 93 1008.8
20200409162119 72 221 15.0 26.0 0.00 0.00 0.00 93 1008.9
20200409161439 72 223 16.0 31.0 0.00 0.00 0.00 92 1008.8
20200409160759 72 219 18.0 31.0 0.00 0.00 0.00 92 1008.9
20200409160119 72 223 16.0 33.0 0.00 0.00 0.00 91 1008.9
20200409155439 72 241 18.0 33.0 0.00 0.00 0.00 91 1009.0
20200409154759 73 230 17.0 32.0 0.00 0.00 0.00 90 1008.9
20200409154119 72 227 15.0 31.0 0.00 0.00 0.00 91 1009.1
20200409153439 72 221 16.0 31.0 0.00 0.00 0.00 92 1009.2
20200409151439 72 240 19.0 33.0 0.00 0.00 0.00 91 1009.4
20200409150759 73 245 17.0 32.0 0.00 0.00 0.00 91 1009.4
20200409144759 73 243 18.0 29.0 0.00 0.00 0.00 90 1009.4
20200409144119 73 248 15.0 29.0 0.00 0.00 0.00 91 1009.6
20200409142759 72 241 20.0 31.0 0.00 0.00 0.00 92 1009.5
20200409141439 72 238 16.0 30.0 0.00 0.00 0.00 93 1009.4
20200409140759 72 241 19.0 28.0 0.00 0.00 0.00 93 1009.5
20200409135439 72 244 18.0 28.0 0.00 0.00 0.00 93 1009.6
20200409134759 73 238 18.0 29.0 0.00 0.00 0.00 92 1009.5
20200409133439 72 248 14.0 29.0 0.00 0.00 0.00 94 1009.7
20200409132119 72 244 17.0 26.0 0.00 0.00 0.00 94 1009.5
20200409125439 72 248 16.0 25.0 0.00 0.00 0.00 94 1009.6
20200409124759 72 251 14.0 24.0 0.00 0.00 0.00 94 1009.4
20200409122759 72 251 15.0 26.0 0.00 0.00 0.00 96 1009.4
20200409122119 72 249 18.0 28.0 0.00 0.00 0.00 95 1009.4
20200409120759 72 253 14.0 25.0 0.00 0.00 0.00 95 1009.2
20200409120119 72 251 13.0 28.0 0.00 0.00 0.00 96 1009.2
20200409114119 72 252 17.0 25.0 0.00 0.00 0.00 96 1009.0
20200409113439 72 250 17.0 31.0 0.00 0.00 0.00 96 1009.1
20200409112119 72 255 17.0 31.0 0.00 0.00 0.00 95 1008.9
20200409110759 72 255 17.0 32.0 0.00 0.00 0.00 95 1008.9
20200409105439 72 260 18.0 32.0 0.00 0.00 0.00 95 1008.9
20200409104759 72 259 19.0 29.0 0.00 0.00 0.00 96 1009.0
20200409104119 72 259 17.0 28.0 0.00 0.00 0.00 96 1008.8